星链-5264 (STARLINK-5264 )

导读

STARLINK-5264是美国SpaceX公司星链计划中的卫星,于2022年10月28日发射升空。它属于星链卫星互联网星座的组成部分,主要用于提供全球覆盖的高速卫星互联网服务,尤其服务偏远地区、地面网络无法覆盖区域,进一步扩充了星链星座的组网规模,增强星座整体服务能力。

基本信息
目录编号:
54206
目录名称:
STARLINK-5264
国际标识:
2022-141BB
轨道中心:
EARTH
卫星名称:
星链-5264
卫星全名:
星链-5264 (STARLINK-5264 )
卫星状态:
在轨 (已飞行1407 天)
发射日期:
2022-10-28 UTC
国别 :
美国 (US)
星等 :
--
轨道信息
数据来源 国际轨道数据 AOE轨道数据
星历时间 2026-09-03T12:56:07+0800
1天前
查看轨道信息
2026-09-03T23:00:00+0800
14小时前
查看轨道信息
半长轴 6837.917km 6837.861km
偏心率 0.0001293 0.0001665
轨道倾角 53.159° 53.157°
近地点辐角 79.282° 68.960°
升交点赤经 234.925° 232.966°
平近点角 280.833° 90.512°
近地点 458.895km 458.585km
远地点 460.665km 460.863km
周期 93.788分钟 93.786分钟
每日圈数 15.353842 15.354032
详细信息
固有亮度:
5
最大亮度:
2.5
卫星平台:
Starlink v1.5
覆盖范围:
全球
运营商:
太空探索技术公司
运营商所在国:
美国
制造商(研发单位):
太空探索技术公司
制造商所在国:
美国
使用方式:
暂无
卫星简介
星链(Starlink)计划是由太空探索技术公司(SpaceX)提出的一个巨型低轨卫星互联网星座项目,计划在2019年至2024年间在太空搭建由约1.2万颗卫星组成的“星链”网络,其中1584颗将部署在地球上空550千米处的近地轨道,并从2020年开始工作。该卫星仍在工作。
2D轨道图
3D轨道图
轨道高度分析图
轨道倾角分析图
轨道综合分析图
查看轨道综合分析图